This demonstration page uses our WeatherBlox Daily Observations layout. Learn more.

Left ArrowRight Arrow

38.89511, -77.03637

Hourly Observations for May 10, 2019

Temp ( °F °C ) Dew Point ( °F °C ) Humidity (%) Winds ( mph kmh ) Pressure ( in mb ) Visibility ( mi km ) Precip ( " mm )
12:52 am 00:52 Mostly Clear 68 20 60 15.6 76 76 S 12 19 30.09 1019 10 16 N/A
1:52 am 01:52 Mostly Clear 68 20 61 16.1 78 78 S 13 20 30.07 1018 10 16 N/A
2:52 am 02:52 Partly Cloudy 68 20 61 16.1 78 78 S 12 19 30.06 1018 10 16 N/A
3:52 am 03:52 Mostly Cloudy 69 20.6 61 16.1 76 76 S 16 26 30.05 1018 10 16 N/A
4:52 am 04:52 Cloudy 69 20.6 60 15.6 73 73 S 12 19 30.05 1018 10 16 N/A
5:52 am 05:52 Mostly Cloudy 68 20 60 15.6 76 76 S 12 19 30.05 1018 10 16 N/A
6:52 am 06:52 Cloudy 69 20.6 60 15.6 73 73 S 13 20 30.05 1018 10 16 N/A
7:52 am 07:52 Cloudy 68 20 61 16.1 78 78 S 10 17 30.05 1018 10 16 N/A
8:52 am 08:52 Cloudy 70 21.1 60 15.6 71 71 S 13 20 30.03 1017 10 16 N/A
9:52 am 09:52 Cloudy 71 21.7 61 16.1 71 71 S 14 22 30.03 1017 10 16 N/A
10:52 am 10:52 Cloudy 74 23.3 62 16.7 67 67 S 14 22 30.02 1017 10 16 N/A
11:52 am 11:52 Mostly Cloudy 78 25.6 63 17.2 60 60 SSW 17 28 30.02 1017 10 16 N/A
12:52 pm 12:52 Cloudy 79 26.1 64 17.8 60 60 S 14 22 29.99 1016 10 16 N/A
1:52 pm 13:52 Mostly Cloudy 81 27.2 65 18.3 58 58 S 17 28 29.97 1015 10 16 N/A
2:52 pm 14:52 Mostly Cloudy 81 27.2 64 17.8 57 57 SSW 21 33 29.96 1014 10 16 N/A
3:52 pm 15:52 Mostly Cloudy 80 26.7 62 16.7 54 54 S 20 31 29.95 1014 10 16 N/A
4:08 pm 16:08 Mostly Cloudy with Light Rain 77 25 63 17.2 62 62 NW 16 26 29.98 1015 8 13 N/A
4:14 pm 16:14 Mostly Cloudy with Heavy Rain 72 22.2 65 18.3 79 79 W 9 15 29.97 1015 1 2 0.04 1.02
4:23 pm 16:23 Cloudy with Light Rain 75 23.9 65 18.3 71 71 WSW 7 11 29.98 1015 3 5 0.16 4.06
4:28 pm 16:28 Mostly Cloudy with Light Rain 75 23.9 66 18.9 74 74 WSW 9 15 29.98 1015 9 14 0.16 4.06
4:52 pm 16:52 Mostly Cloudy 74 23.3 66 18.9 76 76 SSW 6 9 29.96 1015 10 16 0.16 4.06
5:52 pm 17:52 Mostly Cloudy 74 23.3 65 18.3 74 74 S 6 9 29.96 1014 10 16 N/A
6:52 pm 18:52 Mostly Cloudy 73 22.8 66 18.9 79 79 S 6 9 29.95 1014 10 16 N/A
7:52 pm 19:52 Mostly Cloudy 73 22.8 68 20 84 84 S 6 9 29.94 1014 10 16 N/A
8:52 pm 20:52 Mostly Cloudy 73 22.8 66 18.9 79 79 SSW 7 11 29.95 1014 10 16 N/A
9:30 pm 21:30 Cloudy with Thunderstorms 74 23.3 67 19.4 79 79 WNW 12 19 29.99 1016 10 16 N/A
9:43 pm 21:43 Cloudy with Strong Thunderstorms 70 21.1 65 18.3 84 84 NNW 13 20 30.00 1016 3 5 0.05 1.27
9:46 pm 21:46 Cloudy with Strong Thunderstorms 70 21 64 18 83 83 NW 14 22 29.99 1016 3 4 0.10 2.54
9:49 pm 21:49 Cloudy with Strong Thunderstorms 70 21 64 18 83 83 NW 12 19 29.99 1016 3 4 0.15 3.81
9:52 pm 21:52 Cloudy with Strong Thunderstorms 70 21.1 65 18.3 84 84 NW 12 19 29.99 1016 3 4 0.16 4.06
9:55 pm 21:55 Cloudy with Strong Thunderstorms 69 20.6 65 18.3 87 87 NNW 10 17 29.99 1016 3 5 0.02 0.51
10:03 pm 22:03 Cloudy with Strong Thunderstorms 69 20.6 65 18.3 87 87 NNW 7 11 30.00 1016 2 3 0.09 2.29
10:17 pm 22:17 Cloudy with Light Rain 69 20.6 66 18.9 90 90 NNE 3 6 29.99 1016 9 14 0.20 5.08
11:52 pm 23:52 Cloudy 69 20.6 65 18.3 87 87 S 5 7 30.00 1016 10 16 N/A

Powered by AerisWeather